Dewpoint
25 15 10 10 13 17 18 17 12 18 19 18 19 18 10 6 8 16 19 23 25 21 19 17 19 19 18 18 18 15 15 31 32 31 29 28 27 27 27 26 26 25 22 29 32 34 36 39 41 49 50 50 50 50 50 50 50 51 51 53 55 57 59 61 61 61 62 61 61 62 62 62 62 62 62 62 63 63 64 64 64 63 63 63 62 63
25 14 15 13 11 17 17 20 20 17 17 15 14 13 6 8 -1 12 19 20 22 20 14 12 14 14 15 14 13 14 14 12 20 28 29 28 27 27 26 26 26 25 30 31 29 31 33 32 36 39 48 49 49 50 50 49 49 50 50 52 53 55 57 60 61 61 62 62 62 61 62 62 62 62 61 62 62 61 59 59 60 62 62 62 62 62
20 15 14 21 20 18 20 21 22 17 14 12 5 6 -3 6 12 13 19 20 20 15 14 17 10 11 12 13 14 15 15 14 11 14 15 20 21 19 19 23 26 26 25 25 26 30 30 33 34 35 42 46 47 46 47 50 49 49 49 50 51 53 56 58 60 61 61 61 61 61 59 61 57 55 58 59 59 58 58 57 57 59 59 59 59 60
15 18 21 23 20 15 16 21 21 18 17 11 7 -2 -9 10 -5 -7 12 19 19 16 11 12 8 12 12 12 11 11 11 11 16 18 18 17 11 10 12 13 17 19 21 21 22 23 24 28 29 29 34 41 43 44 43 42 46 49 49 49 50 51 54 56 58 58 59 59 59 55 56 56 56 56 54 55 56 56 56 56 56 56 58 58 59 58
16 18 22 17 12 11 11 15 14 9 2 16 14 11 9 5 4 -2 2 16 16 14 14 10 7 8 12 12 10 12 19 17 15 15 14 17 22 18 21 20 20 16 17 19 20 22 24 25 25 28 31 35 40 42 42 42 42 45 47 48 48 49 51 54 56 57 58 57 56 55 55 55 55 55 55 56 56 56 56 55 55 56 56 57 58 57
18 21 20 15 12 17 16 12 15 7 2 9 16 11 12 13 4 10 15 12 11 6 16 10 -3 0 8 9 12 14 16 16 19 14 13 13 13 16 17 17 18 23 25 22 21 22 24 26 27 29 29 30 33 38 41 42 42 41 42 46 48 48 49 51 53 56 58 59 58 56 57 56 55 55 54 55 57 56 56 57 55 54 55 56 56 56
21 23 19 17 13 15 13 12 16 9 1 1 0 12 14 14 7 12 10 7 -1 -1 9 15 -1 -3 8 2 5 10 7 9 10 11 15 17 18 18 19 20 21 21 21 21 24 25 24 25 27 27 27 28 28 29 34 38 41 42 41 43 47 48 48 49 50 55 57 58 57 57 58 57 56 56 55 55 54 56 55 53 54 54 53 55 55 55
20 20 18 17 16 15 11 8 10 11 8 4 14 17 16 13 10 10 10 5 10 13 14 10 10 -7 0 8 8 7 2 4 6 8 9 10 13 15 19 20 21 21 22 24 24 25 26 27 28 27 28 30 31 35 40 42 43 44 44 43 46 48 48 48 49 52 56 57 57 56 56 56 55 55 55 55 53 52 52 53 53 52 52 52 53 54
14 15 19 16 11 10 9 10 11 12 6 6 17 19 16 13 15 12 10 8 7 9 4 6 7 -4 -1 8 8 6 -2 -2 1 7 8 14 17 19 22 25 27 27 27 27 28 29 30 31 31 32 33 34 37 38 39 40 41 42 43 43 43 44 46 47 48 50 53 55 56 57 56 55 54 54 54 52 50 51 51 52 51 52 52 52 52 53
15 21 22 20 12 8 12 13 11 12 7 15 20 18 17 17 15 11 10 8 2 1 1 3 2 -5 -1 5 -3 3 1 -1 4 4 11 17 22 24 25 27 28 29 30 30 30 31 32 32 33 34 34 34 35 36 37 37 38 39 40 40 40 40 42 43 44 47 49 53 55 56 56 55 55 54 51 51 51 50 50 51 51 51 51 51 51 52
6 25 28 19 17 14 13 13 16 12 10 21 18 12 11 10 10 7 7 5 -2 -7 3 4 3 0 -8 -4 3 -1 0 5 2 9 14 22 24 25 25 25 25 26 26 26 25 25 25 27 30 32 33 33 34 35 35 36 37 38 39 39 40 40 41 41 42 43 45 47 52 55 55 55 55 54 52 51 50 50 50 51 51 50 51 50 51 50
12 19 15 18 26 18 14 14 20 22 20 17 10 8 12 10 5 -5 -5 -1 -6 -6 2 3 3 0 -8 -1 4 4 3 9 9 10 21 23 23 22 21 20 20 21 22 22 22 22 22 22 22 23 25 29 32 33 33 34 35 36 37 37 38 38 39 40 40 41 42 45 47 51 54 54 54 54 53 52 52 51 50 51 51 49 48 49 49 49
6 13 19 20 29 19 17 10 15 17 18 15 13 13 8 -1 -4 -3 -2 -4 -4 -2 -3 1 1 -3 -2 -4 -4 8 16 19 21 22 22 21 19 18 18 18 18 19 19 20 20 20 19 19 20 21 21 22 24 25 28 31 33 34 35 35 36 36 37 38 39 39 41 42 44 47 50 52 53 53 53 53 52 51 51 51 50 49 49 48 48 49
4 8 12 18 21 24 17 9 12 10 14 13 13 9 3 -5 -11 -14 -12 -13 -11 -3 -0 -2 2 -3 5 6 14 15 17 18 19 19 18 17 16 15 15 15 16 16 17 18 18 18 17 17 18 19 19 19 20 20 21 23 28 32 32 33 34 35 36 37 37 38 40 42 43 45 47 48 50 52 52 52 52 51 51 51 50 49 49 49 49 49
-10 -5 4 15 14 18 17 10 13 11 12 13 13 12 7 -0 -7 -11 -12 -10 -6 -3 0 3 -2 -7 -0 2 14 15 15 15 15 15 15 15 14 14 13 13 12 13 13 15 15 15 14 14 15 16 17 17 18 18 19 20 21 29 29 30 30 32 34 35 36 37 39 42 44 45 46 47 47 50 51 52 52 51 50 50 50 49 48 48 48 48
-1 -3 7 16 18 17 12 16 20 14 13 11 14 14 4 3 5 -10 -8 -11 -14 -12 -4 0 -1 3 5 13 16 13 13 13 13 12 12 11 12 11 10 10 10 10 10 11 12 12 12 12 12 14 14 15 16 16 17 18 18 20 25 26 27 28 29 32 35 36 38 40 43 44 45 46 46 47 48 49 50 50 50 50 49 49 48 46 45 45
0 -3 10 13 14 9 8 15 14 17 3 11 13 5 10 10 7 -1 2 -5 -5 -7 -5 -5 6 6 9 11 12 12 11 11 10 10 10 10 10 10 9 8 8 8 8 8 9 10 10 10 10 11 12 12 13 14 14 15 16 16 19 22 23 24 25 27 29 33 36 38 40 42 43 43 44 45 46 48 48 49 48 48 47 47 45 45 45 45
1 3 6 13 14 12 11 14 16 15 14 10 2 11 13 15 11 4 -4 -1 -5 -5 -9 4 3 4 4 -2 12 11 10 9 9 9 9 9 9 8 8 7 7 7 7 7 7 7 8 8 9 9 10 10 10 12 13 12 14 14 15 16 20 21 21 23 25 27 32 35 38 40 41 42 42 42 43 43 44 45 45 45 44 44 44 44 44 45
5 -1 2 6 9 11 9 15 15 15 17 14 10 11 12 2 4 6 4 2 2 -0 -5 -1 2 1 3 1 10 10 7 7 8 8 8 8 8 7 6 6 6 5 5 5 4 5 5 5 6 7 7 8 9 10 11 12 12 13 13 13 15 19 20 20 21 24 27 30 35 38 38 39 40 41 41 41 41 42 43 43 43 43 44 44 44 44
3 -1 2 6 6 6 8 13 7 10 12 12 15 13 9 7 1 3 5 4 3 1 -2 -6 0 -2 8 10 10 8 7 7 6 7 7 7 7 7 5 4 4 4 3 3 2 3 3 3 3 4 6 7 7 8 10 10 11 11 11 11 11 13 17 18 18 21 24 27 32 34 37 37 38 39 40 40 41 41 42 42 43 43 43 43 44 44
5 7 -4 2 5 5 4 6 1 4 4 7 9 3 7 0 9 7 9 7 7 -0 0 -5 -6 -2 9 10 8 7 7 6 7 6 6 6 6 6 4 3 2 2 1 1 1 1 1 1 1 2 3 6 6 7 7 8 9 9 9 9 9 9 12 15 16 19 22 25 28 32 34 35 36 37 38 39 39 40 41 41 42 42 42 43 43 44
-9 -1 1 -2 1 -8 4 5 2 -0 3 4 6 6 11 5 1 1 2 10 4 7 0 2 -2 6 9 9 7 7 6 6 7 7 6 5 4 5 4 2 1 1 -0 -1 -0 -1 -1 -0 -0 0 1 2 3 4 4 6 7 7 7 8 8 8 9 11 15 17 20 23 26 29 32 33 34 34 36 37 38 39 41 41 42 42 42 42 42 43
2 -5 -11 -7 -1 4 5 5 5 4 5 1 3 2 7 3 5 3 -0 1 -2 -1 4 -2 0 2 11 9 7 7 6 5 5 4 4 3 2 2 2 1 -0 -1 -1 -2 -2 -2 -2 -2 -2 -1 -0 -0 1 2 2 3 5 6 6 7 7 7 7 8 12 16 18 21 24 26 29 31 32 33 33 35 36 38 39 41 41 41 42 42 42 42
12 -5 -5 -9 -8 -2 -4 -2 3 5 6 5 5 4 3 -1 -2 -1 1 4 -6 -4 -8 -5 -2 1 10 10 7 6 6 5 3 2 3 2 -1 -1 -0 -0 -2 -3 -3 -3 -3 -4 -4 -4 -3 -3 -3 -2 -1 -1 0 1 3 4 5 5 6 6 6 7 10 14 15 20 23 25 27 29 30 31 31 32 34 35 37 38 40 40 40 41 41 41
-8 -7 -10 -13 -24 -12 -19 -10 -6 -3 1 -2 2 4 2 -2 -3 -3 -4 -4 -7 -6 -2 -4 -3 5 9 8 6 5 3 1 0 -0 -1 -1 -2 -3 -3 -2 -2 -4 -4 -5 -5 -5 -5 -5 -5 -5 -5 -4 -3 -3 -2 -1 1 2 3 3 4 5 6 7 8 11 13 17 21 24 26 27 28 29 30 31 32 33 35 36 37 38 39 39 39 39
-12 -10 -16 -15 -17 -18 -21 -22 -25 -17 -16 -4 -4 -0 -3 -1 -1 -4 -12 -9 -10 -4 -1 -7 -11 7 8 6 4 3 2 0 -1 -2 -2 -3 -3 -4 -4 -3 -2 -5 -5 -6 -6 -6 -6 -6 -6 -6 -6 -5 -5 -4 -3 -2 -1 -0 0 1 3 4 5 6 7 9 11 14 19 23 25 25 27 27 28 30 31 31 34 35 36 37 37 37 37 37
-12 -10 -18 -17 -15 -15 -13 -18 -10 -3 -6 -15 -14 -6 -7 -4 -3 0 -2 -8 -11 -8 -9 -10 -7 -3 0 3 1 1 1 -1 -2 -3 -4 -4 -4 -4 -5 -4 -2 -5 -6 -6 -6 -7 -7 -8 -8 -7 -7 -6 -6 -6 -5 -3 -2 -2 -1 -0 1 2 3 5 6 8 9 11 15 20 23 24 25 26 27 28 29 30 31 33 35 35 35 35 36 36
-12 -12 -10 -13 -14 -10 -10 -15 -10 -1 -9 -7 -7 -8 -7 -7 -5 -3 -8 -12 -9 -10 -12 -7 -7 -6 -7 -8 -1 -1 -1 -2 -3 -4 -5 -5 -5 -5 -6 -5 1 -6 -7 -7 -8 -8 -8 -8 -8 -8 -8 -7 -7 -7 -6 -5 -4 -3 -3 -2 -1 1 2 4 5 7 8 9 12 16 19 23 25 26 27 27 28 28 29 31 32 33 33 34 34 34
-9 -12 -17 -7 -11 -9 -10 -12 -8 -5 -7 -7 -7 -7 -8 -9 -11 -8 -9 -7 -10 -10 -13 -8 -6 -7 -10 -8 -1 -3 -3 -4 -3 -5 -5 -5 -6 -6 -6 -7 -8 -8 -8 -8 -9 -9 -9 -9 -9 -9 -8 -8 -8 -8 -7 -6 -5 -5 -4 -3 -2 -1 -0 2 5 6 7 8 9 11 16 20 23 25 26 28 28 28 29 30 31 32 32 32 32 33
-20 -23 -18 -15 -14 -12 -11 -10 -10 -9 -11 -10 -12 -9 -10 -12 -11 -10 -11 -9 -8 -9 -6 -6 -7 -8 -7 -2 -4 -5 -5 -6 -4 -5 -6 -7 -8 -8 -9 -9 -9 -10 -10 -10 -10 -10 -10 -10 -10 -10 -8 -9 -9 -8 -7 -7 -6 -6 -6 -5 -4 -3 -1 2 4 4 5 6 7 8 11 16 21 24 26 27 28 29 29 29 30 31 31 31 31 31
-8 -14 -1 -7 -12 -15 -13 -8 -10 -10 -13 -15 -10 -10 -9 -10 -9 -9 -9 -9 -9 -8 -8 -8 -8 -8 -6 -6 -7 -8 -11 -10 -7 -6 -7 -9 -9 -9 -11 -11 -11 -11 -11 -12 -12 -11 -10 -11 -11 -10 -9 -8 -8 -8 -7 -7 -7 -7 -6 -6 -5 -4 -2 1 3 3 3 5 6 6 7 10 16 21 24 26 28 29 29 30 29 29 29 29 29 28
-3 -7 -11 -9 -12 -19 -14 -10 -9 -10 -10 -11 -12 -9 -9 -9 -11 -9 -8 -9 -10 -11 -11 -10 -10 -8 -5 -9 -9 -10 -12 -12 -11 -10 -8 -9 -10 -10 -11 -12 -13 -13 -13 -13 -12 -12 -11 -11 -11 -10 -9 -9 -9 -8 -7 -7 -8 -7 -7 -7 -6 -5 -2 1 2 2 2 3 4 5 6 7 10 17 22 25 26 27 28 29 29 28 28 27 27 27
-16 -13 -13 -13 -13 -13 -14 -15 -13 -13 -16 -18 -17 -12 -10 -9 -8 -8 -7 -6 -6 -10 -9 -11 -10 -10 -13 -10 -12 -11 -13 -12 -11 -12 -9 -10 -11 -12 -12 -13 -13 -13 -12 -13 -12 -12 -13 -11 -11 -10 -10 -9 -9 -8 -8 -8 -8 -8 -7 -8 -7 -6 -2 -0 1 1 2 2 3 3 4 5 6 11 18 22 25 26 27 27 27 27 26 26 25 26
-10 -11 -15 -16 -15 -13 -15 -14 -15 -16 -21 -22 -15 -11 -11 -11 -10 -10 -9 -9 -13 -13 -9 -10 -9 -14 -15 -14 -14 -14 -13 -14 -14 -13 -10 -12 -12 -13 -13 -13 -13 -13 -12 -13 -12 -13 -13 -12 -11 -10 -10 -10 -9 -8 -9 -8 -8 -8 -8 -8 -8 -6 -2 -1 -1 0 1 1 2 3 4 4 5 6 11 18 22 25 26 26 26 26 25 25 24 25
-8 -13 -16 -15 -14 -14 -20 -17 -19 -23 -23 -17 -14 -14 -14 -14 -14 -16 -17 -18 -17 -16 -15 -15 -16 -16 -16 -16 -16 -16 -16 -16 -15 -13 -13 -15 -15 -16 -15 -13 -14 -13 -13 -13 -13 -13 -13 -12 -12 -12 -11 -10 -9 -10 -10 -10 -9 -8 -9 -9 -7 -6 -3 -3 -3 -1 -1 -1 -0 1 3 4 4 5 8 13 20 22 24 25 25 25 24 24 24 24
-5 -7 -17 -10 -16 -17 -21 -17 -31 -32 -27 -12 -15 -16 -14 -16 -14 -16 -17 -17 -18 -17 -17 -16 -18 -17 -18 -18 -17 -16 -17 -17 -16 -12 -13 -15 -16 -17 -16 -14 -13 -13 -14 -13 -13 -13 -13 -13 -12 -12 -12 -9 -10 -11 -11 -10 -9 -9 -9 -8 -8 -6 -5 -4 -3 -3 -3 -2 -2 -1 1 4 5 5 7 9 17 21 23 23 24 23 23 23 23 23
1 -6 -13 -15 -17 -22 -25 -21 -19 -22 -17 -17 -18 -18 -16 -15 -16 -16 -21 -14 -19 -18 -17 -16 -18 -18 -18 -18 -17 -17 -17 -16 -13 -10 -14 -16 -16 -15 -15 -14 -13 -13 -13 -13 -13 -13 -13 -13 -12 -12 -11 -11 -10 -11 -11 -10 -10 -9 -9 -9 -9 -7 -6 -5 -4 -4 -4 -3 -2 -1 0 3 6 6 7 9 12 19 22 23 23 23 23 23 23 22
-1 -5 -8 -15 -18 -17 -19 -26 -29 -25 -27 -24 -17 -16 -14 -13 -14 -13 -12 -10 -19 -19 -17 -18 -19 -19 -19 -18 -18 -17 -16 -12 -11 -11 -15 -16 -17 -16 -15 -14 -13 -13 -13 -12 -13 -12 -12 -12 -11 -12 -11 -11 -11 -11 -10 -10 -10 -10 -10 -10 -9 -9 -8 -7 -6 -5 -5 -4 -3 -2 -1 3 6 6 8 9 10 13 19 21 22 22 22 22 21 20
-7 -5 -8 -10 -13 -16 -17 -23 -27 -31 -29 -16 -17 -16 -16 -14 -13 -13 -21 -22 -16 -19 -18 -18 -19 -19 -18 -18 -18 -17 -15 -14 -14 -15 -13 -17 -17 -17 -16 -15 -14 -14 -13 -13 -13 -13 -13 -11 -12 -13 -13 -12 -12 -11 -10 -10 -10 -10 -11 -10 -10 -10 -10 -9 -8 -7 -6 -5 -4 -3 -0 4 6 7 7 9 10 12 15 20 21 22 22 21 19 19
-15 -15 -13 -14 -16 -19 -21 -22 -25 -24 -25 -20 -17 -17 -16 -14 -12 -10 -28 -26 -20 -19 -18 -18 -18 -18 -18 -18 -18 -17 -16 -17 -14 -13 -15 -16 -16 -16 -16 -15 -15 -15 -15 -14 -13 -13 -12 -12 -14 -14 -14 -14 -13 -11 -11 -10 -9 -10 -11 -11 -10 -11 -10 -10 -8 -8 -7 -5 -3 -2 1 5 7 7 8 9 11 13 14 18 21 21 20 19 18 18
-21 -22 -17 -15 -22 -17 -15 -24 -27 -25 -15 -14 -17 -17 -16 -14 -16 -27 -25 -17 -16 -17 -18 -17 -18 -19 -18 -18 -17 -21 -18 -14 -15 -16 -16 -16 -17 -17 -16 -15 -16 -16 -16 -15 -14 -8 -13 -14 -15 -15 -15 -13 -12 -12 -11 -10 -10 -11 -11 -11 -11 -11 -10 -8 -8 -9 -8 -6 -3 -1 2 5 6 7 8 9 11 14 16 18 20 20 19 17 16 16
-30 -21 -17 -27 -26 -23 -28 -25 -20 -29 -21 -16 -17 -17 -15 -17 -26 -24 -12 -22 -17 -18 -18 -18 -18 -19 -17 -19 -16 -16 -15 -16 -15 -16 -17 -17 -17 -17 -17 -17 -17 -17 -16 -15 -14 -14 -15 -15 -16 -16 -15 -14 -12 -12 -11 -10 -11 -12 -12 -12 -13 -11 -8 -8 -9 -8 -7 -6 -4 -0 3 5 6 7 9 10 13 15 16 17 18 19 18 17 16 15
-26 -24 -30 -25 -27 -31 -25 -25 -28 -27 -28 -19 -19 -16 -18 -18 -13 -16 -19 -19 -17 -16 -18 -18 -18 -18 -19 -17 -18 -18 -18 -18 -18 -18 -18 -18 -18 -18 -18 -18 -19 -18 -17 -17 -17 -16 -15 -17 -17 -16 -16 -14 -13 -12 -12 -11 -12 -13 -13 -14 -13 -10 -9 -9 -9 -9 -8 -6 -2 2 4 5 6 8 9 11 13 14 16 17 18 18 18 16 15 15
-16 -21 -30 -29 -19 -25 -27 -27 -29 -25 -19 -20 -15 -25 -20 -16 -18 -19 -15 -15 -16 -17 -16 -16 -17 -18 -19 -20 -19 -19 -19 -19 -19 -19 -19 -19 -19 -19 -19 -19 -19 -18 -18 -18 -17 -17 -16 -17 -17 -17 -16 -15 -14 -14 -13 -12 -12 -13 -13 -14 -11 -10 -10 -10 -10 -9 -9 -6 -1 2 4 6 7 8 10 11 12 14 15 16 17 17 18 17 16 15
-17 -20 -24 -23 -17 -21 -27 -30 -18 -19 -19 -16 -15 -16 -17 -17 -17 -18 -17 -16 -15 -14 -15 -15 -18 -19 -19 -20 -20 -20 -20 -20 -21 -20 -21 -21 -20 -20 -20 -20 -20 -20 -19 -19 -19 -18 -18 -18 -18 -17 -17 -15 -15 -14 -14 -13 -13 -14 -15 -13 -10 -11 -11 -11 -11 -10 -9 -6 -0 2 3 5 7 9 9 10 11 11 13 14 15 16 16 17 16 14
-21 -17 -21 -24 -19 -20 -18 -18 -19 -19 -17 -20 -16 -17 -17 -19 -17 -17 -17 -17 -16 -16 -17 -17 -19 -19 -19 -19 -20 -21 -22 -22 -22 -21 -22 -22 -22 -21 -20 -20 -21 -21 -21 -20 -20 -19 -19 -18 -18 -18 -17 -16 -15 -16 -14 -14 -14 -15 -14 -12 -11 -12 -12 -12 -11 -11 -9 -5 0 2 3 4 6 9 10 11 11 11 13 12 14 15 15 15 15 15
-21 -20 -25 -25 -28 -21 -23 -19 -18 -17 -19 -19 -19 -18 -18 -17 -17 -17 -20 -16 -18 -18 -18 -19 -20 -21 -22 -23 -24 -23 -23 -23 -23 -22 -22 -23 -23 -22 -22 -22 -21 -21 -21 -22 -21 -20 -20 -19 -18 -18 -17 -17 -16 -16 -15 -14 -13 -13 -12 -12 -11 -12 -13 -13 -12 -11 -9 -5 -1 1 2 4 5 7 9 10 11 12 13 13 13 13 13 13 12 12
-17 -19 -17 -22 -25 -19 -20 -21 -20 -20 -18 -17 -15 -16 -17 -19 -21 -20 -17 -20 -20 -21 -21 -21 -24 -24 -23 -23 -23 -23 -23 -23 -23 -23 -24 -24 -23 -23 -22 -22 -21 -21 -21 -21 -21 -20 -20 -19 -19 -18 -18 -17 -16 -15 -14 -13 -13 -13 -12 -12 -12 -13 -13 -13 -12 -11 -10 -6 -1 0 2 3 5 6 8 11 11 11 12 12 12 11 11 11 11 11
-20 -16 -25 -23 -22 -20 -21 -20 -20 -20 -19 -18 -17 -18 -15 -16 -18 -21 -22 -23 -24 -23 -24 -26 -26 -24 -24 -23 -24 -24 -24 -24 -24 -24 -24 -24 -24 -23 -23 -22 -22 -22 -22 -22 -22 -20 -20 -19 -19 -18 -18 -17 -16 -14 -14 -13 -13 -13 -12 -12 -13 -14 -14 -14 -12 -11 -10 -6 -2 -1 1 2 3 4 5 10 12 12 13 12 12 12 12 12 12 11
-17 -18 -25 -18 -25 -24 -19 -17 -22 -24 -24 -19 -19 -19 -20 -20 -21 -21 -23 -24 -25 -25 -27 -27 -26 -26 -26 -26 -24 -24 -25 -25 -24 -24 -25 -24 -24 -23 -22 -22 -22 -22 -22 -22 -21 -21 -20 -19 -18 -18 -18 -17 -15 -14 -14 -13 -13 -13 -12 -13 -13 -14 -15 -14 -13 -12 -10 -6 -4 -1 -1 0 1 2 3 5 9 9 9 12 15 15 12 12 14 14
-16 -15 -14 -16 -18 -19 -16 -21 -21 -20 -19 -18 -17 -20 -20 -21 -22 -23 -24 -25 -25 -26 -27 -27 -24 -26 -24 -24 -26 -24 -25 -25 -25 -24 -24 -24 -24 -23 -23 -23 -22 -22 -22 -21 -22 -21 -20 -19 -18 -18 -18 -17 -15 -14 -14 -14 -13 -13 -12 -13 -14 -14 -14 -14 -13 -12 -10 -6 -5 -2 -1 -1 -0 1 1 2 5 6 6 6 7 11 14 15 14 14